Theta_e
317 317 318 318 318 318 316 315 315 315 316 317 319 322 322 322 322 321 321 322 322 322 322 321 319 317 317 316 317 317 317 317 316 316 316 316 314 313 312 312 312 312 312 312 313 315 316 317 317 316 317 317 319 321 320 320 318 322 331 330 328 329 321 319 318 317 318 316 314 314 314 315 315 314 314 314 312 311 310 309 308 307 307 306 306 305 305 305
317 317 317 318 318 319 318 316 315 315 316 318 320 322 323 322 322 322 322 322 322 322 322 321 319 317 317 317 317 317 318 318 316 316 316 314 313 312 312 312 312 312 312 313 313 314 316 316 316 317 318 318 320 321 320 320 318 323 329 325 329 330 319 316 315 314 316 314 314 314 314 314 314 313 314 314 311 310 309 308 307 306 305 305 305 304 304 304
318 317 317 318 319 319 319 317 316 316 316 317 320 322 323 322 322 322 322 322 322 322 322 321 320 317 317 317 316 317 318 320 317 316 316 313 312 312 312 312 312 312 313 313 314 315 316 317 317 318 318 318 320 321 320 321 320 320 322 324 332 326 317 316 314 314 314 314 314 314 314 313 313 313 314 313 311 310 309 308 307 305 304 304 304 304 303 303
317 318 318 318 319 320 320 319 317 316 316 317 320 322 323 323 323 322 322 322 322 322 322 321 320 318 317 317 317 317 316 321 320 315 316 314 313 312 312 312 312 313 313 313 314 315 316 317 317 317 318 319 320 320 320 321 320 318 319 326 329 319 317 318 314 314 314 314 314 313 313 313 313 314 313 313 313 310 308 308 307 305 304 303 303 303 303 302
317 317 318 318 319 320 320 320 319 317 317 317 319 321 322 323 323 323 322 322 322 322 321 321 320 318 317 317 317 316 317 324 322 315 316 314 313 313 311 312 313 313 313 313 314 314 316 316 316 317 317 318 319 319 319 319 317 316 318 320 319 314 317 317 314 314 314 313 314 312 312 312 313 313 313 314 314 310 307 307 307 305 304 303 303 302 302 301
315 316 317 318 318 320 320 321 320 318 317 317 318 319 321 322 322 322 322 322 322 322 321 321 320 319 317 318 318 318 321 325 320 315 316 314 313 313 312 312 313 313 313 313 313 314 315 314 315 316 316 316 318 318 318 318 316 317 318 315 315 315 316 316 314 314 313 313 313 312 312 312 313 312 312 312 310 308 307 307 306 305 305 304 303 302 302 301
313 314 315 316 317 318 320 320 320 320 318 318 317 318 319 320 321 321 321 321 321 321 322 321 320 319 317 319 321 321 321 320 317 315 316 314 314 313 312 313 312 313 313 313 313 314 314 313 315 315 316 317 317 316 317 317 315 318 319 315 315 316 315 315 314 313 313 313 312 311 312 312 312 312 311 309 307 307 306 306 305 305 304 304 304 302 302 301
313 313 314 314 315 316 318 320 320 320 319 318 318 318 318 319 319 319 319 320 320 320 321 321 321 319 317 319 321 322 320 317 316 315 315 314 314 313 313 313 313 313 313 313 313 313 314 314 315 315 316 317 317 316 316 316 316 319 320 315 315 316 315 315 314 313 313 312 311 311 312 312 312 312 309 307 307 306 306 306 305 304 304 304 303 302 301 301
313 313 314 314 314 315 316 318 319 320 320 319 319 318 318 318 318 318 318 319 319 320 321 321 320 319 318 317 317 321 321 319 317 315 315 315 314 314 314 314 313 312 313 313 313 313 313 313 314 314 315 316 316 316 315 315 317 317 316 314 314 315 315 314 313 312 313 312 311 311 312 311 311 312 309 307 307 306 306 305 305 304 304 303 302 301 301 301
313 313 314 314 314 315 315 316 318 319 319 319 319 319 319 318 318 318 318 319 319 319 320 320 320 319 318 317 318 321 321 319 317 315 314 315 314 314 315 314 313 312 313 313 313 312 313 312 313 313 315 316 315 315 315 315 316 316 314 313 313 313 314 314 313 312 313 312 311 311 312 312 311 313 310 307 306 306 306 305 304 304 303 302 301 300 300 300
312 313 313 314 314 315 315 316 317 318 318 319 318 318 318 317 317 317 317 317 318 318 320 320 319 319 318 318 320 321 320 317 316 315 314 315 315 315 315 315 313 312 313 313 313 313 312 312 312 313 316 316 314 314 314 314 316 314 313 313 313 313 313 313 313 313 312 312 312 312 311 311 311 313 311 306 306 306 306 304 303 303 302 301 301 300 300 300
312 312 313 313 314 314 315 316 316 317 318 318 318 318 317 317 316 315 315 315 316 318 320 319 319 319 318 318 320 320 318 316 315 314 315 315 315 316 315 315 313 312 313 313 312 312 312 312 311 313 315 315 314 314 314 315 314 313 313 314 314 312 313 313 313 313 312 312 312 311 312 314 312 311 309 306 306 306 305 304 302 302 301 301 301 300 299 299
311 312 312 313 313 314 315 316 316 317 317 317 317 317 317 316 316 315 314 315 316 318 319 318 319 319 317 318 319 318 317 315 314 314 315 315 315 316 315 314 313 313 313 312 313 313 312 313 312 312 313 314 315 313 313 314 313 313 312 314 316 314 315 314 312 313 312 312 313 311 314 317 313 309 307 306 306 306 304 303 302 301 301 301 300 300 299 299
311 311 312 312 313 313 314 315 316 316 317 317 317 317 317 316 316 315 315 314 315 318 318 318 319 318 317 319 319 317 316 315 314 315 315 315 316 316 315 315 314 314 314 313 313 312 313 314 313 312 312 313 314 313 315 314 313 314 312 316 319 316 320 317 311 313 312 312 313 310 313 315 311 307 307 307 306 305 304 303 302 301 301 300 300 300 300 299
310 310 311 311 312 312 313 314 315 316 316 317 317 317 317 317 316 315 315 314 316 317 317 318 319 318 319 319 318 316 315 314 315 315 315 315 316 316 315 315 315 315 315 313 313 314 314 314 313 313 313 314 313 313 316 317 316 315 314 322 324 318 321 317 310 311 312 313 312 310 314 314 309 307 307 306 306 306 304 302 302 301 301 300 300 300 299 299
310 310 310 311 312 312 313 313 314 315 316 316 316 316 317 316 315 315 315 315 317 317 316 319 319 319 319 319 318 317 316 315 315 315 315 316 316 316 315 315 316 316 315 315 315 315 315 315 314 314 313 313 313 315 321 326 326 321 317 321 323 317 317 315 311 311 311 313 312 310 313 315 310 308 307 306 305 305 303 302 302 301 301 300 300 300 299 299
310 310 310 310 311 312 312 313 314 315 315 316 316 316 316 316 315 315 315 316 317 315 317 320 320 319 319 319 318 318 317 317 317 316 316 316 315 315 315 315 316 316 316 316 316 316 315 315 313 314 314 312 314 320 323 326 328 328 323 319 319 317 314 314 314 311 310 312 313 311 311 313 312 308 307 306 305 304 303 302 302 301 301 300 300 299 299 299
310 310 310 310 310 311 312 313 314 315 315 316 316 315 315 315 315 315 317 318 316 317 321 320 318 318 320 319 318 318 318 318 317 316 316 315 315 315 314 315 316 317 317 316 316 316 315 313 314 320 322 315 316 320 318 318 323 324 323 319 317 318 313 312 313 311 312 312 312 313 312 312 311 307 306 305 305 304 302 302 301 301 301 300 300 299 299 298
309 310 310 309 310 311 312 313 314 315 315 315 315 315 315 315 315 316 317 317 314 318 322 319 316 317 318 319 318 318 319 317 316 316 316 315 315 315 314 315 316 316 316 318 319 315 314 317 320 327 326 314 313 316 314 318 321 318 317 316 315 316 313 311 312 311 311 311 312 312 312 312 310 308 306 305 304 304 302 302 301 301 300 300 300 299 299 298
309 309 309 310 310 310 311 312 313 315 315 315 316 315 315 314 316 318 316 314 314 315 316 316 315 316 317 318 318 319 318 317 316 316 316 315 314 314 315 315 315 318 318 319 320 315 316 322 323 327 322 311 310 314 314 316 316 313 313 315 314 314 312 311 312 311 309 311 314 313 312 311 310 309 307 304 304 302 301 301 301 300 300 300 299 299 298 297
309 309 309 310 309 310 311 311 313 314 315 317 318 317 315 313 315 316 314 314 314 314 313 314 316 317 318 318 319 317 316 316 316 316 316 314 314 314 315 315 317 322 320 316 317 317 318 321 325 327 318 310 310 312 313 313 311 312 313 314 315 315 313 312 312 311 308 310 314 313 311 311 310 309 306 303 303 301 300 300 300 300 300 300 299 298 297 296
309 309 310 309 309 310 310 311 312 313 315 318 319 317 315 313 313 313 312 313 314 314 315 316 317 318 317 317 318 316 314 315 315 316 315 313 314 314 314 316 317 319 319 317 321 322 320 323 325 320 311 309 312 312 312 312 312 314 314 313 315 315 315 314 313 311 309 309 314 313 310 309 309 310 306 302 302 301 301 301 300 300 300 299 299 298 297 296
309 309 309 309 310 309 310 312 312 313 316 319 319 316 314 313 312 311 313 315 316 316 317 318 318 317 317 316 316 315 314 315 315 315 314 313 314 314 314 315 315 317 318 319 320 319 322 326 321 312 308 309 312 313 313 312 313 315 314 314 316 316 316 316 314 312 310 309 312 311 309 308 307 309 307 302 302 302 301 301 301 300 300 299 299 298 296 296
309 309 309 310 309 309 310 311 312 314 317 319 319 316 315 314 311 312 314 315 317 317 316 318 317 317 317 315 315 315 314 314 314 313 313 313 313 313 313 313 315 318 318 315 315 316 320 319 312 309 312 312 313 315 315 314 315 318 318 315 316 315 315 316 315 312 311 311 313 310 308 310 308 308 306 302 301 301 300 300 300 300 299 299 298 297 296 296
309 309 310 309 309 310 310 311 313 315 317 319 318 315 315 313 311 314 314 315 320 320 318 317 316 318 317 315 315 314 313 313 313 313 312 312 313 313 312 312 315 320 318 314 313 315 316 312 309 313 315 315 316 318 319 318 317 319 320 318 317 315 313 316 315 312 312 313 313 309 309 313 311 308 305 302 301 301 300 299 298 299 299 298 297 296 296 296
309 310 310 309 309 309 310 313 315 315 317 318 317 315 314 313 312 315 316 318 322 321 320 318 317 318 316 315 315 313 316 315 313 313 312 312 313 313 314 314 314 317 315 311 313 315 313 309 311 317 318 316 317 318 320 319 315 316 318 317 315 312 311 314 313 311 313 313 311 310 310 310 310 309 305 302 302 301 300 298 297 298 299 297 296 296 296 295
309 310 310 310 309 309 311 315 314 315 317 317 317 316 314 313 313 314 318 321 322 321 322 320 317 318 316 315 315 315 319 318 313 312 311 312 312 312 316 316 315 315 310 312 322 321 313 310 313 315 316 316 315 316 318 317 316 318 315 311 311 310 311 313 311 311 312 311 309 309 309 308 308 309 305 302 302 301 300 299 298 297 298 297 296 296 295 295
310 310 310 309 309 309 311 314 315 316 318 319 318 316 314 313 312 316 319 317 317 322 323 319 316 316 316 314 315 315 316 316 315 314 310 311 312 312 314 315 316 316 310 313 325 320 312 313 316 316 315 316 317 317 317 316 315 316 312 309 309 310 311 311 311 310 309 308 308 309 309 308 310 311 306 302 303 302 300 299 298 296 296 296 296 296 295 294
310 310 310 309 309 310 312 315 317 317 317 318 318 316 315 312 312 319 321 314 315 322 320 316 316 315 314 314 314 314 313 313 315 314 310 310 311 311 313 312 310 311 310 313 319 316 311 312 314 316 316 316 318 317 315 316 313 310 309 309 311 311 310 309 309 308 307 307 309 309 308 308 310 313 308 303 304 304 300 298 297 296 296 296 295 295 295 294
311 310 309 309 310 312 314 316 316 316 317 317 317 316 313 311 316 322 320 314 318 321 315 314 317 315 314 315 315 313 313 313 312 312 310 309 310 310 310 310 308 310 314 313 315 314 310 307 307 311 312 312 313 311 308 311 309 307 308 311 312 313 310 309 309 308 308 311 311 309 309 307 308 311 307 304 306 305 301 297 297 295 295 296 295 295 294 294
311 310 309 310 312 312 313 315 315 315 316 317 316 314 311 314 321 322 316 313 316 318 315 316 317 316 316 318 319 314 312 313 311 310 312 311 310 310 310 314 315 319 321 319 320 317 311 309 309 308 308 308 309 308 308 308 307 308 311 311 312 315 314 311 311 309 310 316 314 308 307 306 307 309 307 305 305 303 300 298 296 295 294 295 295 294 294 294
311 310 309 310 312 312 312 313 315 315 314 316 315 312 314 316 318 320 322 318 315 317 319 319 317 318 319 320 322 319 315 317 313 311 317 315 313 316 317 320 323 325 324 323 323 320 316 316 310 307 307 308 310 311 311 311 309 311 313 310 311 316 317 315 314 311 310 314 310 304 305 306 305 307 308 306 303 300 299 297 296 295 294 295 295 294 294 294
311 310 309 311 313 314 313 312 314 314 312 313 312 313 318 318 317 321 323 320 316 318 320 322 320 321 321 320 325 323 317 320 317 312 316 315 314 322 323 319 320 322 321 319 319 319 321 318 310 308 309 308 310 312 315 315 311 311 312 312 313 314 315 315 315 313 314 315 308 302 303 306 306 306 306 304 300 297 297 296 296 295 294 295 294 294 294 293
312 309 309 311 313 314 314 314 314 312 311 310 309 314 318 318 321 322 320 320 319 318 320 322 321 320 319 320 326 324 318 322 320 312 315 315 315 322 322 316 316 319 318 317 317 316 319 322 317 314 311 309 310 313 318 318 312 310 311 312 313 313 315 316 315 315 315 314 309 302 304 308 309 306 302 299 296 295 296 295 295 295 294 294 294 294 294 293
312 310 310 311 312 314 315 315 314 311 309 307 308 315 317 317 321 321 320 322 321 319 319 319 320 320 321 323 325 321 316 320 319 313 315 317 317 322 325 321 317 316 317 319 319 314 316 322 315 307 306 308 309 308 309 312 312 310 307 308 310 312 313 313 312 311 309 308 307 304 306 309 306 301 297 295 295 294 295 294 294 295 294 294 294 293 293 293
312 311 311 310 310 314 316 316 314 310 307 305 308 314 314 316 323 322 319 320 321 322 320 318 320 321 322 324 324 319 314 317 318 315 316 316 316 319 323 323 317 313 315 320 321 316 317 320 310 303 304 305 304 303 302 308 313 309 305 308 310 308 307 308 309 307 305 306 307 305 307 307 304 300 295 295 296 295 294 293 293 294 294 294 294 293 293 293
312 311 313 312 309 312 317 317 316 310 305 305 309 313 313 314 320 321 318 317 319 322 320 319 320 321 324 324 323 320 315 315 316 316 319 317 315 316 318 317 314 312 313 316 319 318 318 317 309 306 308 303 298 301 301 301 306 308 308 309 309 305 304 306 308 307 305 307 307 306 306 305 306 304 297 295 296 295 294 294 293 293 294 294 293 293 293 293
312 313 314 313 309 311 315 319 318 311 305 304 308 313 315 314 314 314 316 316 316 319 319 320 318 318 323 323 321 321 317 317 317 316 320 320 315 317 317 315 312 309 309 309 314 317 317 318 311 304 306 303 299 303 305 300 300 305 306 305 305 307 306 305 306 307 308 309 309 308 306 304 305 304 298 295 296 295 294 294 294 294 293 293 293 293 293 293
313 313 314 312 309 309 313 318 319 311 305 305 306 311 315 315 313 312 314 315 316 317 318 320 317 316 320 321 321 321 315 317 318 315 317 318 316 315 314 314 312 306 305 308 313 315 314 319 316 303 301 304 302 305 310 306 300 300 301 301 302 305 306 305 305 306 309 309 310 310 309 306 305 303 299 296 296 295 294 295 295 294 293 293 293 293 292 292
314 314 314 311 308 308 311 317 317 309 305 306 307 310 313 314 314 313 314 315 316 316 318 321 318 315 318 319 322 322 316 317 319 316 316 316 316 315 312 313 314 307 303 305 310 312 311 316 316 305 301 304 306 306 309 309 304 300 301 301 301 300 303 305 304 303 306 307 308 308 308 308 305 302 300 298 297 296 295 296 297 294 293 293 293 292 292 292
313 313 314 311 309 309 312 315 313 307 306 308 308 309 311 313 314 314 314 315 315 315 317 320 319 317 316 316 319 322 318 317 317 316 317 316 315 317 314 311 311 308 305 306 309 311 312 314 314 309 305 307 308 306 305 307 307 303 302 302 302 301 302 305 305 303 303 304 306 306 307 309 305 300 299 299 298 296 295 296 296 294 293 293 293 292 292 292
313 313 312 311 310 311 312 314 312 309 308 310 310 310 311 312 314 314 314 314 314 314 314 317 319 317 316 316 318 321 320 320 319 316 317 317 315 317 315 310 307 307 308 310 310 308 309 310 310 309 310 308 306 303 302 303 304 303 303 304 303 302 302 305 307 306 303 301 302 303 304 305 301 298 298 298 296 295 295 295 294 293 293 293 292 292 292 292
313 313 311 310 311 313 313 314 314 312 311 311 311 311 311 312 313 314 315 314 314 314 313 314 315 315 315 315 316 319 320 321 321 318 317 318 316 313 310 308 307 307 308 310 308 304 306 310 309 310 312 308 301 298 298 299 300 301 301 301 302 302 302 304 305 305 304 302 301 301 302 302 300 298 298 296 295 295 295 295 294 293 293 293 292 292 292 291
313 313 311 310 311 313 314 315 315 314 313 313 313 313 313 313 313 314 315 314 314 315 314 314 314 313 315 315 314 317 318 318 318 317 318 320 315 307 304 306 308 307 308 310 310 307 309 312 311 311 314 312 305 301 301 299 298 298 300 300 300 301 302 302 301 302 302 302 301 302 303 303 299 298 297 295 295 296 295 295 294 293 293 292 292 292 291 291
313 312 312 311 311 312 313 314 313 313 314 314 314 315 314 314 314 314 315 314 313 313 314 316 314 312 314 315 314 315 316 315 316 316 316 318 312 302 301 304 305 304 305 306 306 308 311 313 312 313 315 315 314 312 310 305 299 297 299 299 300 300 300 300 301 301 301 301 301 301 302 302 298 297 298 297 297 297 295 294 293 293 293 292 292 292 291 291
312 312 312 311 310 310 311 312 312 313 314 314 314 315 314 314 314 314 315 315 312 311 312 315 314 312 314 315 314 315 314 313 315 315 315 318 312 301 299 300 301 301 301 302 303 307 311 309 308 312 315 314 315 314 310 305 301 301 300 298 299 300 300 300 301 301 301 301 301 301 301 302 300 298 298 296 296 297 296 293 292 292 292 292 291 291 291 291
312 311 311 310 310 309 309 311 312 312 313 313 314 315 315 315 314 314 315 315 313 312 312 313 313 313 315 314 313 314 313 312 314 313 314 318 311 300 297 297 298 299 299 299 302 306 309 308 306 309 310 311 313 312 308 304 303 304 303 299 298 299 300 301 301 301 301 301 302 303 302 302 302 300 299 297 296 297 296 293 292 292 292 292 291 291 291 291
311 311 310 310 310 310 309 310 311 311 312 313 313 314 314 315 315 314 315 315 314 313 313 314 314 314 314 314 314 314 314 313 313 312 313 315 311 303 299 298 297 297 298 299 300 303 308 308 307 308 307 307 309 309 307 305 304 304 303 300 298 298 299 300 300 300 300 301 302 304 303 302 302 300 299 298 297 297 296 294 293 293 292 291 292 291 291 291
311 311 310 309 309 310 310 310 311 311 312 312 312 313 313 314 314 314 315 315 315 314 314 315 315 314 314 314 314 314 314 314 314 314 312 313 313 309 306 305 300 296 297 299 298 300 305 307 307 307 307 307 307 306 305 304 304 304 303 300 299 298 299 299 299 299 299 299 300 301 301 300 300 300 299 299 297 296 295 294 293 292 292 291 291 291 291 290
311 310 310 310 309 308 309 310 310 311 312 312 312 312 312 313 314 314 315 316 316 315 314 315 316 315 314 314 313 314 314 314 315 315 313 313 314 311 310 311 304 297 296 298 299 300 303 306 306 305 306 306 306 305 304 303 302 302 302 301 300 299 299 298 298 298 298 298 298 298 299 299 299 299 298 297 296 295 294 293 292 292 291 291 291 291 291 290
313 311 310 310 310 308 308 309 309 311 312 311 312 312 312 313 313 313 314 315 315 315 314 314 315 315 314 314 313 313 313 313 314 314 313 313 313 312 311 309 304 300 297 297 300 301 302 304 304 303 306 307 305 302 302 300 299 299 300 300 299 299 299 299 298 298 298 298 298 298 298 298 298 299 298 296 296 294 292 291 291 291 291 291 291 291 290 290
313 312 310 310 311 310 309 309 309 310 311 310 311 311 312 313 312 313 315 314 314 315 314 314 315 314 314 314 313 313 312 312 312 311 310 310 309 309 309 306 304 304 299 297 299 301 301 303 304 303 306 306 301 298 298 298 300 302 302 300 299 299 299 299 299 299 298 298 298 298 299 299 299 299 298 297 296 294 292 291 291 291 291 291 291 290 290 289
Wind_Speed
12 13 14 14 15 16 16 17 17 18 19 19 20 21 22 24 25 25 25 27 27 28 28 23 19 13 8 6 7 7 7 9 10 8 9 13 13 12 12 12 12 11 10 9 7 5 3 3 2 3 5 5 4 3 4 5 6 3 2 3 2 2 1 1 2 2 3 2 1 5 7 6 2 2 5 11 21 25 25 26 25 22 21 18 15 10 7 6
12 12 13 14 14 15 15 16 16 17 17 18 19 20 21 22 23 24 24 26 27 28 28 24 19 14 9 5 5 6 6 8 10 10 11 12 11 12 12 13 13 12 11 10 9 8 7 6 5 4 6 6 5 3 2 3 5 3 2 2 3 4 2 2 4 4 5 4 2 5 6 7 2 2 4 8 15 21 20 18 22 23 19 15 12 9 8 7
11 12 13 13 14 14 15 15 16 16 16 17 18 19 20 21 22 23 23 24 26 27 28 25 19 14 9 3 3 4 4 6 10 11 10 9 10 12 12 13 14 14 13 11 10 10 10 9 9 8 9 7 5 4 1 2 4 2 3 1 5 4 2 3 9 9 8 6 4 5 4 5 3 3 5 8 10 13 12 10 15 20 18 15 12 10 9 9
11 12 12 13 14 14 14 14 15 15 15 16 16 17 18 19 20 21 22 23 25 26 27 25 19 13 10 4 1 2 1 3 6 8 8 7 9 10 11 12 13 13 13 12 11 11 10 9 10 9 8 6 3 3 1 1 3 2 2 3 6 2 2 4 9 10 9 9 5 5 5 4 5 4 6 12 9 6 7 13 15 19 19 16 13 11 10 11
11 11 12 13 13 14 14 14 14 15 15 15 16 16 17 18 19 20 21 22 24 25 25 25 19 12 9 5 2 1 2 2 3 5 5 5 7 9 11 11 12 12 12 12 12 11 9 10 11 7 4 4 1 0 0 1 2 3 1 2 2 3 2 4 8 9 9 9 6 6 6 4 4 5 7 13 6 4 12 17 18 20 18 14 13 12 12 14
11 12 12 13 13 14 14 14 14 14 15 15 15 16 16 17 18 19 20 21 23 24 24 24 20 12 8 5 3 2 2 1 1 2 3 3 5 8 10 10 11 11 10 12 11 10 10 10 10 8 5 3 1 1 2 1 1 2 3 1 2 3 3 6 8 8 7 7 6 4 4 4 4 9 8 13 12 14 18 18 18 17 14 12 11 10 11 14
12 12 12 13 13 13 14 14 14 14 15 15 15 16 16 16 17 18 19 21 22 24 23 22 20 11 6 5 4 3 2 2 1 1 2 3 4 6 8 9 10 9 9 11 11 11 11 12 11 10 6 2 2 1 2 1 1 2 3 3 1 4 5 7 7 5 6 5 4 5 5 4 6 9 10 18 20 22 19 16 16 14 12 9 8 9 11 13
12 13 13 13 13 14 14 14 14 15 15 15 16 16 16 16 16 17 18 20 21 22 22 21 19 11 6 5 4 4 2 1 1 1 1 2 3 5 7 8 9 9 10 11 11 11 9 10 11 10 4 1 4 4 2 3 1 4 2 3 1 5 7 8 6 4 3 3 4 8 6 8 6 14 12 19 22 22 19 15 14 13 11 9 8 11 11 12
13 13 14 14 14 14 14 14 14 15 15 16 16 17 17 17 16 17 18 19 19 21 20 21 18 10 5 5 5 5 4 3 3 1 1 1 3 6 8 9 9 10 11 10 9 10 9 8 8 7 3 2 5 5 4 4 2 2 1 2 2 5 6 6 5 3 1 2 6 7 6 7 16 20 8 17 23 20 18 16 14 13 11 10 10 11 10 11
14 14 14 15 15 15 15 15 15 15 15 15 16 17 17 17 17 17 17 18 18 19 19 19 18 9 4 4 4 3 3 4 4 2 1 1 3 6 8 9 10 10 11 10 9 10 10 9 7 6 3 3 4 6 4 1 2 1 2 5 6 8 7 5 5 3 3 5 6 6 3 2 15 13 2 16 23 20 19 16 15 13 12 12 11 10 10 11
14 14 15 15 15 16 16 16 16 16 16 16 16 16 18 18 18 18 17 17 17 17 17 18 17 9 3 4 4 3 4 4 3 3 2 0 3 5 8 9 10 9 10 10 8 8 9 8 7 5 3 3 6 7 4 2 2 2 4 8 9 9 7 6 6 5 3 4 6 7 4 4 7 4 9 23 23 20 19 18 16 14 14 13 11 10 11 12
14 15 15 15 16 16 17 18 17 18 18 17 17 17 18 19 19 18 18 17 16 16 15 16 15 7 4 5 6 6 6 4 4 3 2 1 3 6 8 10 9 8 9 10 7 6 6 7 8 5 4 4 6 4 2 3 4 3 2 4 6 4 2 6 6 6 3 2 5 9 6 2 4 5 19 28 25 20 19 20 18 16 15 13 11 11 12 13
14 15 15 16 17 17 18 18 18 19 19 18 18 18 18 19 19 19 18 16 15 14 14 15 12 5 5 5 6 7 7 6 5 3 2 2 4 6 8 9 8 8 10 10 6 5 6 7 9 7 7 5 3 3 5 7 5 3 1 2 2 6 4 7 7 5 4 3 4 5 4 4 2 11 25 29 26 23 21 22 19 17 16 13 11 10 12 13
15 15 16 16 16 17 18 18 19 19 19 20 20 18 19 20 20 20 17 16 15 12 13 14 8 2 4 4 5 7 8 7 6 3 2 3 3 6 8 8 8 8 10 10 6 4 6 8 10 8 6 6 5 5 7 6 1 1 1 2 3 2 4 7 7 6 4 4 4 1 2 6 2 14 27 28 27 25 23 22 20 19 16 14 12 10 10 10
15 15 16 16 17 18 18 19 19 20 21 21 20 20 20 20 20 18 16 16 13 10 13 11 3 2 4 4 5 7 8 8 7 5 4 4 5 5 7 9 8 8 10 10 5 4 7 9 9 6 4 4 4 4 5 4 2 2 1 3 2 3 4 6 5 7 7 4 4 4 3 5 4 14 24 27 26 24 23 22 20 19 16 14 12 10 9 8
16 16 16 16 17 17 18 19 19 21 21 21 22 21 20 21 19 16 16 13 9 11 14 7 3 3 4 4 5 7 8 9 8 7 7 7 6 5 7 9 8 8 10 7 3 5 8 8 6 5 3 2 1 2 3 4 4 3 2 2 3 2 3 3 3 5 7 2 3 4 3 4 3 13 21 23 24 23 23 22 20 19 16 13 10 9 7 6
16 16 16 16 17 17 18 18 19 21 20 22 23 21 22 20 16 16 14 7 8 15 12 4 3 6 6 7 6 7 8 8 8 9 8 7 6 5 7 7 7 8 9 4 2 6 8 4 2 3 1 1 2 4 4 4 4 4 2 1 4 3 3 2 5 4 5 3 4 3 3 6 4 11 19 21 23 23 22 21 21 19 15 13 10 8 6 5
17 17 16 16 16 17 17 18 19 20 21 22 22 23 23 16 15 15 6 4 13 15 6 2 3 5 5 5 5 6 7 7 8 9 8 7 5 6 7 6 7 7 6 3 2 5 5 2 0 1 3 4 4 5 3 3 3 3 3 3 4 4 3 4 4 3 4 3 5 3 4 7 4 8 15 18 22 22 21 22 21 19 16 13 10 8 6 5
18 17 16 16 16 16 17 17 18 19 21 21 21 23 19 15 16 7 2 10 15 6 2 4 5 4 7 9 8 9 9 8 8 8 8 6 5 6 5 4 6 6 3 2 4 4 1 2 3 3 2 2 2 4 3 5 6 6 5 3 4 5 5 6 5 3 5 3 6 6 6 6 4 7 11 16 20 20 20 21 20 18 16 13 10 8 5 4
18 17 16 16 16 16 16 16 17 18 20 21 22 22 16 15 12 2 10 19 9 4 9 13 13 13 15 15 12 11 10 8 8 7 6 4 4 4 2 4 5 5 3 3 5 3 3 4 4 2 4 4 2 4 5 5 4 3 3 3 5 6 6 6 5 3 3 3 6 7 6 7 5 8 11 17 18 18 19 19 20 19 16 13 11 8 5 4
18 18 16 16 15 15 15 15 15 16 18 19 21 19 13 13 7 5 17 16 8 13 17 16 16 16 14 13 10 8 6 7 7 6 4 3 3 1 1 4 4 2 4 5 3 0 4 4 4 6 7 6 4 5 4 3 2 2 3 4 6 5 7 8 5 3 2 1 5 5 6 8 7 8 11 16 14 15 21 20 19 20 16 14 11 9 6 4
18 17 16 16 15 14 14 14 14 14 15 15 16 15 12 12 9 9 13 11 15 18 13 12 13 13 11 12 11 7 5 5 5 5 3 2 1 1 2 3 3 1 5 4 2 3 4 4 7 8 6 3 3 3 4 3 3 3 3 2 4 4 5 7 3 1 1 0 4 5 7 8 9 10 9 17 16 15 23 23 21 21 18 15 11 10 7 3
17 17 16 16 15 14 13 13 13 12 12 12 12 12 12 13 12 14 12 9 15 13 7 7 7 8 7 6 7 7 4 3 4 5 3 2 1 1 1 2 2 1 3 4 3 2 4 5 7 7 6 2 1 1 3 2 3 4 4 2 4 4 2 4 4 4 4 2 4 7 10 8 8 9 6 14 17 16 19 21 20 20 17 14 12 11 7 3
17 17 16 16 15 14 12 12 12 11 10 9 9 9 10 13 12 14 13 6 8 8 4 3 4 5 5 3 4 6 4 3 4 4 4 2 1 0 1 2 3 2 1 1 4 3 7 7 4 6 5 4 1 1 2 3 3 4 5 5 6 4 4 6 3 5 5 4 5 7 9 6 7 9 5 6 11 13 17 19 18 18 16 13 13 11 7 4
17 17 16 15 14 13 12 11 10 8 7 7 7 7 9 12 12 13 10 3 4 6 2 3 4 5 6 4 4 4 2 5 6 5 4 1 1 2 1 2 2 1 3 1 1 3 7 4 4 5 2 3 3 2 3 6 3 5 5 7 6 4 4 5 4 5 5 5 4 1 4 6 3 6 6 4 6 9 13 15 17 18 17 15 15 11 6 3
18 17 16 15 15 13 11 10 8 7 7 6 6 6 9 10 11 12 7 3 3 4 3 3 3 4 6 5 5 3 2 4 5 5 4 2 3 3 1 2 2 1 3 1 2 3 3 0 4 5 3 2 2 4 4 6 3 3 4 4 5 4 1 4 3 3 2 4 3 3 1 7 2 4 8 7 8 9 9 10 14 19 19 18 15 11 6 2
18 16 16 16 15 13 11 9 8 7 6 5 4 5 8 9 10 10 5 3 4 3 4 3 4 4 5 5 6 5 0 2 2 3 5 4 2 2 1 2 1 1 2 3 2 3 2 2 3 4 4 2 3 4 5 6 5 4 4 4 4 1 4 5 2 3 4 2 4 2 3 7 7 5 8 11 10 9 8 8 11 18 21 18 14 10 5 0
17 16 16 16 15 13 12 10 10 8 5 5 4 4 6 8 9 6 4 2 3 3 3 2 4 4 5 4 6 7 2 1 1 1 5 5 1 1 1 3 3 3 2 4 2 5 2 2 3 4 3 3 5 5 6 7 3 5 5 4 3 4 6 5 4 6 2 3 5 6 5 5 8 4 5 9 10 9 11 11 10 16 20 18 15 10 3 1
18 17 17 16 15 14 12 12 10 8 6 5 3 4 5 6 6 4 4 1 1 3 2 3 4 4 5 3 6 8 5 2 2 3 5 3 1 1 1 2 4 3 3 5 6 7 2 3 5 7 4 5 6 5 6 7 2 4 4 2 2 4 5 4 5 4 2 1 7 7 6 4 6 2 4 6 8 10 11 10 10 16 21 18 15 10 2 1
19 19 18 17 15 14 13 12 11 8 7 6 4 4 5 5 1 4 1 3 1 1 2 3 3 3 5 2 2 5 4 4 4 3 3 3 2 1 1 2 1 2 3 2 4 6 2 2 3 4 4 5 5 3 3 4 3 1 2 2 4 4 2 1 2 1 3 4 8 8 10 7 5 3 6 6 6 9 10 9 10 15 20 19 14 8 4 2
21 20 19 17 16 15 13 12 10 9 9 7 5 4 3 3 3 4 4 3 1 1 3 2 2 2 5 2 1 3 2 3 4 4 2 1 1 1 2 1 2 3 3 4 3 5 3 1 2 2 4 4 5 1 1 1 2 3 3 3 4 5 3 4 3 3 2 6 6 6 8 7 6 5 6 7 5 8 13 13 13 13 18 20 13 8 5 3
21 21 19 18 17 15 14 12 10 10 10 8 6 4 1 1 1 3 4 2 2 2 3 2 3 3 4 2 1 3 2 2 4 5 3 2 1 1 2 3 1 3 4 2 3 6 3 4 3 1 3 5 6 2 3 4 4 4 4 4 3 4 4 3 3 0 3 7 4 2 2 4 9 7 6 9 7 8 14 17 18 17 19 19 12 8 6 3
22 21 20 19 17 16 15 13 11 11 9 8 6 2 4 3 4 6 5 2 2 3 2 2 2 3 4 2 2 3 1 3 4 3 2 2 0 3 3 4 5 2 4 2 2 4 4 5 2 1 2 6 8 4 2 1 2 4 3 3 2 1 3 5 4 3 4 5 4 1 2 3 7 5 6 9 7 9 16 20 22 22 20 17 11 9 7 5
22 22 20 20 19 17 16 14 14 13 10 9 7 4 4 4 6 5 6 6 3 0 2 3 3 2 2 1 4 4 1 4 3 3 0 2 1 2 4 4 4 4 1 1 2 2 2 6 3 3 2 6 7 4 5 4 4 4 4 5 4 3 2 5 3 4 6 5 4 1 1 4 3 4 5 5 9 13 20 23 22 20 17 14 12 10 7 5
22 21 20 21 20 18 16 15 15 14 13 11 6 4 5 6 4 3 5 5 2 1 1 1 5 3 2 3 3 3 3 3 1 4 1 2 3 4 3 4 5 5 4 1 2 2 4 6 4 0 1 6 4 3 4 5 2 3 2 4 2 4 4 4 3 3 3 6 5 3 3 5 4 2 3 6 10 13 18 20 21 19 16 14 12 9 6 2
22 18 19 21 20 18 17 17 16 14 15 11 5 4 7 5 4 4 4 4 3 4 2 2 3 3 3 3 3 3 3 1 0 2 2 3 3 5 5 4 6 7 6 4 2 1 2 5 2 2 2 2 2 1 1 2 1 1 2 3 4 4 4 1 2 0 2 5 6 3 4 5 0 1 1 6 7 8 10 12 16 17 15 14 11 8 3 3
18 16 19 21 20 18 16 17 16 16 15 11 5 8 7 4 7 6 2 2 3 4 5 1 2 4 4 2 3 4 2 1 1 1 2 3 3 5 5 4 5 9 10 5 2 3 2 4 3 2 1 3 1 0 2 1 2 4 3 4 3 2 2 2 1 3 2 5 6 3 7 8 2 2 2 5 7 8 8 7 11 14 14 13 10 6 1 3
16 16 20 23 22 19 18 16 16 16 13 8 7 10 5 5 11 11 5 3 2 3 5 4 4 4 5 3 3 4 4 2 2 2 2 3 4 5 6 4 3 6 9 7 2 2 1 3 4 1 2 2 1 2 2 2 2 4 3 2 1 1 2 2 2 2 2 6 7 2 6 7 5 5 6 9 11 12 10 8 8 10 12 13 10 7 3 2
15 15 18 23 23 21 20 17 15 15 11 6 8 9 5 7 14 17 14 7 4 3 3 6 6 3 4 6 4 3 5 5 4 3 3 2 4 5 7 5 3 3 6 9 4 2 2 1 4 1 1 2 2 1 3 2 1 3 1 2 1 2 3 2 2 2 3 6 7 5 6 4 5 7 12 14 14 14 11 9 7 9 13 14 11 9 6 3
16 11 12 16 18 19 22 19 14 12 8 6 8 6 5 7 12 21 24 15 6 6 5 4 6 5 5 5 5 4 4 5 5 4 3 3 4 5 6 6 5 3 2 5 3 1 2 2 3 2 2 1 2 4 6 7 4 3 2 2 2 2 1 1 2 3 3 7 5 5 9 6 3 4 11 15 14 13 12 9 7 10 15 15 12 10 6 2
16 9 9 12 13 18 22 17 11 9 5 5 6 6 7 8 8 15 26 26 16 11 9 6 6 7 5 5 5 4 4 4 5 5 4 5 5 4 8 11 11 9 4 4 2 3 2 3 4 2 1 3 5 6 7 8 7 6 6 6 7 5 3 2 5 3 4 6 3 4 12 9 3 3 7 10 10 10 11 10 7 11 17 15 12 10 4 2
19 9 9 13 14 19 21 12 7 7 5 7 9 9 9 8 8 11 17 21 19 13 10 7 6 7 6 5 5 4 5 4 5 6 5 7 8 6 8 15 19 17 9 2 3 4 2 2 3 5 6 5 5 3 2 3 3 2 4 5 6 6 6 5 7 4 3 3 2 5 13 9 2 5 6 7 8 10 14 13 10 14 18 15 10 7 2 2
24 15 10 14 18 22 18 6 5 7 6 9 13 14 13 9 7 9 10 12 13 9 8 6 5 8 8 5 5 4 5 5 6 9 6 5 8 6 7 17 20 15 8 2 2 3 2 2 3 6 6 3 2 2 4 4 3 1 4 4 5 7 8 8 6 2 1 3 4 6 11 8 1 2 4 7 9 13 16 16 14 16 16 12 8 5 2 2
23 18 13 14 19 24 17 5 5 9 8 9 10 13 16 14 12 11 8 9 9 6 6 6 5 9 8 4 6 6 6 6 7 8 7 5 5 4 7 19 21 11 6 5 6 7 5 2 3 2 6 5 3 2 3 2 1 3 4 5 7 9 6 3 4 1 2 11 11 8 11 9 2 1 3 7 8 9 12 14 14 15 14 11 8 5 3 3
13 13 17 19 24 27 20 10 7 7 9 10 10 13 14 13 17 20 14 11 12 8 7 7 7 9 5 4 6 7 9 11 8 4 5 5 4 1 5 15 16 10 7 8 10 13 7 2 5 4 6 8 8 7 4 2 3 3 3 7 10 11 10 6 3 3 7 13 12 9 13 11 2 1 3 4 6 7 8 10 12 12 13 12 8 5 2 5
10 8 11 15 24 29 27 21 13 5 6 9 8 12 16 12 13 20 20 15 14 13 10 8 7 7 5 5 7 9 12 13 10 4 3 5 4 1 3 8 9 8 7 8 12 11 3 2 7 9 10 12 14 12 2 4 4 5 5 10 11 11 14 11 5 6 8 6 9 14 15 15 11 6 6 6 7 8 6 8 13 14 13 11 8 4 2 8
12 6 8 10 14 19 21 21 17 9 8 12 7 6 14 15 10 13 17 16 16 19 14 7 8 9 7 9 9 11 14 11 9 8 5 5 3 2 1 4 5 7 7 8 11 8 2 4 10 13 17 19 19 14 4 4 8 11 7 10 11 12 16 15 14 15 6 2 14 20 12 15 19 12 10 10 10 8 6 9 14 14 11 8 5 2 5 10
17 10 17 19 10 7 12 18 20 17 16 16 9 6 10 13 10 10 13 14 17 20 13 8 14 16 13 13 10 11 12 7 7 10 9 7 4 0 0 2 4 7 7 6 7 5 3 8 11 11 17 21 18 13 9 8 11 14 11 9 11 15 18 20 22 20 10 8 21 21 12 17 18 11 12 11 9 10 8 8 11 10 8 7 3 2 7 11
23 11 16 25 16 9 16 23 24 21 19 15 10 13 16 14 12 10 8 6 10 17 17 13 16 17 16 16 14 13 12 7 8 12 10 10 10 5 2 3 4 7 7 4 4 4 3 7 9 9 13 19 16 11 11 12 13 17 15 11 13 19 21 21 22 21 17 19 25 23 22 26 19 12 14 12 9 11 10 10 11 11 10 7 2 3 7 11
34 23 17 20 19 16 18 21 19 15 16 15 14 17 14 13 16 13 8 11 11 12 17 20 18 15 19 22 20 20 18 12 12 15 10 9 9 5 4 4 4 5 5 4 2 3 5 4 2 3 7 16 14 9 10 11 12 19 18 13 16 20 20 21 21 18 17 21 26 25 24 25 19 13 14 14 12 10 9 12 14 12 10 5 0 4 7 9
45 39 28 16 11 14 14 13 13 10 9 13 16 15 12 16 22 14 10 21 24 11 12 21 23 16 17 20 21 23 22 18 17 18 14 14 12 9 9 8 10 8 5 6 4 4 5 3 2 4 4 12 6 3 6 5 8 18 21 17 19 20 20 20 18 17 17 20 23 21 17 19 16 7 4 7 9 9 10 14 15 12 9 4 1 4 6 7
41 37 37 22 8 11 14 9 10 11 12 15 16 16 17 19 19 14 11 20 27 23 21 25 22 14 11 15 22 28 29 26 22 19 15 14 12 11 11 12 17 14 8 7 5 3 5 4 2 4 5 6 1 4 1 3 5 15 17 16 21 23 23 20 17 18 20 17 15 15 15 16 10 2 5 6 7 8 10 14 15 13 8 3 1 2 3 4
Wind_Direction
8 9 10 12 15 15 14 13 13 12 11 11 13 14 12 11 10 10 11 13 15 19 20 15 10 16 29 54 74 65 60 63 60 60 64 63 58 48 39 31 28 26 23 21 14 19 60 77 35 4 346 313 272 291 344 1 9 23 95 73 319 227 167 222 141 99 125 124 22 54 68 98 117 34 71 87 96 96 90 90 93 94 92 94 97 93 78 60
6 7 7 8 10 11 11 10 10 9 8 8 11 12 10 9 8 7 7 9 11 15 20 18 10 11 20 50 84 76 65 63 62 61 63 64 56 46 34 26 24 22 24 25 28 37 42 41 36 29 355 319 252 245 317 359 19 44 92 74 244 223 197 121 89 70 94 113 71 41 62 97 86 10 90 103 104 104 97 93 97 95 93 97 98 92 83 69
3 3 3 4 5 7 7 7 7 5 4 5 8 9 8 8 6 5 4 4 7 10 17 19 14 10 11 27 96 87 62 53 55 52 59 66 54 42 32 27 24 23 23 22 32 37 31 28 19 360 342 327 244 228 273 4 10 39 65 32 241 240 253 54 76 88 88 94 74 21 51 91 41 23 115 114 99 98 106 118 108 100 101 100 98 93 83 69
358 359 359 360 2 2 3 3 3 1 0 1 3 6 6 5 4 4 2 1 2 5 12 17 16 13 8 9 110 106 19 28 37 37 51 62 49 38 33 31 28 28 23 19 23 22 22 19 1 339 323 324 256 225 220 71 355 342 98 207 242 303 318 2 60 76 67 74 62 22 54 50 9 17 149 135 97 57 106 127 123 116 114 108 102 94 82 70
353 355 355 356 357 358 359 359 358 356 356 356 356 0 2 3 2 2 2 0 359 1 7 13 14 14 10 11 102 106 347 356 0 22 51 60 50 38 34 34 34 32 26 28 25 17 24 15 359 351 323 319 300 246 39 137 13 338 251 217 270 16 329 327 37 46 44 64 54 46 54 341 350 49 151 151 122 118 124 121 122 121 120 113 106 96 81 71
348 349 351 351 352 354 355 356 355 351 351 351 350 353 356 358 358 359 359 358 356 356 2 10 10 11 11 17 62 49 15 63 307 23 65 65 51 39 34 31 32 30 28 38 33 25 28 17 11 8 347 329 338 133 157 179 11 325 277 303 24 12 335 326 12 30 28 57 49 29 353 312 87 78 113 125 114 130 131 126 124 120 119 115 112 100 81 71
344 345 346 346 348 349 350 352 353 351 348 348 346 346 349 351 352 354 355 355 354 352 356 5 6 3 356 0 31 25 22 75 107 73 81 68 45 33 29 21 26 28 30 43 41 34 26 17 14 0 349 354 16 58 174 224 176 161 266 287 288 321 322 317 337 9 22 66 28 359 332 295 129 108 101 111 119 131 130 128 126 121 125 127 119 102 85 75
340 342 342 342 343 343 345 347 350 351 349 348 347 344 344 345 346 347 349 350 350 348 348 358 3 357 335 324 347 336 302 1 15 126 93 54 28 22 19 10 18 23 30 39 37 34 24 16 10 357 9 58 358 346 354 352 235 160 244 280 244 288 291 299 310 339 9 97 0 6 4 327 150 138 117 124 133 136 136 135 133 132 134 135 125 106 89 78
335 337 339 339 339 339 340 341 344 348 348 349 350 347 344 343 343 342 345 344 345 345 342 349 357 354 328 296 305 313 266 275 318 265 146 32 4 12 10 3 10 19 29 34 30 32 26 21 8 357 356 309 338 331 3 26 288 177 145 305 304 286 273 280 296 328 305 180 358 13 7 3 136 136 113 143 145 144 146 143 142 141 135 131 124 108 88 77
329 332 334 334 336 336 335 336 337 341 344 346 349 349 345 342 342 340 340 339 340 340 337 343 350 348 330 288 280 291 266 278 289 247 195 1 359 8 5 2 9 17 24 23 23 29 27 19 1 351 323 307 330 305 305 47 256 247 20 328 305 284 266 249 259 289 241 239 343 14 331 305 152 141 109 162 154 153 152 143 149 146 135 131 120 102 80 69
325 327 329 330 331 333 333 333 333 335 338 340 344 346 344 340 341 339 337 337 336 335 333 338 343 337 301 280 262 252 277 287 257 223 191 346 4 8 2 2 7 13 17 14 11 17 22 12 351 338 309 311 316 302 287 230 264 328 359 330 301 277 257 232 231 249 252 254 319 346 317 253 201 178 170 168 161 163 156 143 149 145 138 134 117 98 75 65
319 321 323 325 326 329 331 330 331 332 333 335 337 340 340 337 338 338 336 336 332 329 330 336 339 325 262 271 271 263 275 271 240 221 187 306 356 7 4 2 1 6 8 7 1 2 10 359 348 329 279 288 311 320 301 274 298 318 12 334 314 334 276 237 224 228 226 241 304 337 341 252 232 184 168 166 163 165 156 145 147 143 142 137 120 100 76 64
313 316 318 320 322 325 328 329 329 329 330 330 331 335 336 334 335 336 336 334 328 325 329 334 335 307 257 266 267 263 265 251 233 221 208 296 344 8 7 359 357 1 0 360 355 351 355 343 336 315 275 274 292 303 296 292 302 303 165 128 28 24 325 243 221 218 202 232 289 347 332 269 244 166 166 165 165 161 149 146 148 145 144 136 124 104 83 68
309 311 314 316 318 321 324 326 327 327 328 328 329 332 333 332 333 334 334 330 323 324 331 332 335 294 252 259 263 258 254 241 231 233 251 293 327 360 5 1 2 5 356 353 350 346 345 333 327 314 281 270 271 287 307 312 348 71 104 68 93 92 289 249 211 192 180 241 251 90 273 264 203 166 169 169 170 162 150 149 150 148 144 135 126 105 91 72
304 306 311 313 315 319 320 323 325 325 326 326 327 330 332 332 332 331 330 325 319 326 333 328 305 262 270 264 260 250 245 239 238 250 262 290 313 343 0 1 1 4 355 345 347 359 344 327 320 312 293 284 283 302 329 340 0 42 99 324 345 152 271 279 230 186 177 238 220 155 266 262 187 178 175 170 172 165 153 153 155 151 145 138 128 106 93 67
300 303 306 310 314 316 319 321 322 323 325 325 326 329 332 332 330 329 325 318 319 330 329 316 247 274 284 268 256 243 246 246 251 264 274 292 305 329 350 355 355 355 353 345 350 2 342 328 321 311 297 297 334 65 19 6 347 356 109 255 279 272 288 297 289 209 177 199 223 188 237 273 212 183 178 172 172 166 155 157 157 154 150 142 129 110 97 63
297 300 303 307 311 314 317 320 321 323 324 325 327 328 333 334 329 326 319 307 326 331 323 279 254 297 282 262 255 246 249 255 264 271 279 294 300 321 339 351 358 349 351 358 351 355 349 339 326 314 323 357 46 80 41 4 326 324 18 282 265 290 293 273 309 273 182 182 240 222 227 261 244 181 180 179 175 166 158 160 159 155 152 144 131 115 104 69
295 298 300 303 307 312 316 318 321 322 324 327 329 331 335 335 329 326 311 301 328 330 320 243 309 318 276 242 230 247 258 263 274 275 279 285 294 324 340 353 356 349 357 25 354 359 358 338 24 15 15 12 31 73 50 299 242 252 272 283 287 301 286 254 280 259 176 198 242 254 259 264 251 185 185 183 180 173 163 162 161 157 152 144 135 123 109 73
291 294 297 300 304 309 313 317 322 323 325 328 330 335 338 337 336 331 253 325 330 333 295 289 301 284 262 264 261 266 271 268 271 272 270 275 304 327 345 359 353 1 26 24 337 345 32 7 17 19 347 354 49 119 172 221 205 220 236 227 256 280 275 252 258 233 167 192 246 242 250 261 219 194 198 188 182 176 166 163 161 157 152 145 135 133 120 82
287 291 294 297 299 305 310 315 321 325 328 332 337 344 350 350 351 317 317 331 331 297 296 288 283 274 268 271 271 275 274 261 258 257 250 265 309 327 8 1 357 34 45 335 313 305 92 39 345 270 220 195 215 208 199 213 209 230 254 245 251 261 271 265 268 260 160 172 249 231 237 259 225 210 211 193 181 173 168 165 162 157 153 150 141 143 129 100
284 287 290 293 295 301 306 311 320 326 332 338 345 355 8 7 6 312 325 332 315 304 297 283 282 276 267 264 263 275 269 241 241 239 238 274 310 308 358 7 26 42 322 310 288 222 65 6 283 223 203 193 219 225 195 215 241 252 248 262 271 254 261 269 249 222 156 148 266 250 251 261 248 246 219 187 179 179 176 170 164 159 155 156 150 153 144 115
280 283 287 289 290 295 300 308 316 324 333 338 347 1 11 5 356 336 333 313 303 307 285 274 279 267 267 266 255 253 245 233 235 227 234 276 284 276 314 36 67 334 313 347 28 10 7 297 252 214 193 192 237 215 174 203 227 246 254 279 282 260 269 286 273 207 74 343 272 278 272 259 248 256 219 187 187 187 183 176 167 162 158 161 161 162 160 140
274 278 282 283 285 291 295 304 311 320 330 335 349 360 359 354 349 344 338 300 299 305 274 268 267 250 264 261 232 223 235 253 233 214 210 224 215 311 9 90 85 326 347 39 72 0 318 265 232 191 168 150 290 219 163 212 253 242 242 258 265 266 276 282 301 326 327 289 260 278 277 262 244 249 218 191 187 177 182 177 167 167 162 164 170 171 168 157
270 272 276 277 280 284 288 297 305 315 326 337 350 351 349 346 344 344 337 297 284 298 283 237 219 229 237 222 211 212 233 252 233 218 206 212 207 156 153 119 63 44 205 121 131 187 266 259 190 145 141 139 161 269 162 190 268 255 220 219 245 258 240 240 286 329 327 314 284 289 289 272 232 225 208 176 169 160 168 163 158 166 165 167 173 172 164 156
264 266 269 272 274 278 283 290 296 305 316 333 339 340 347 339 339 347 341 313 288 286 238 191 217 220 210 212 213 196 238 252 239 230 225 247 174 157 150 135 80 23 207 185 122 238 264 255 146 133 120 120 153 246 210 183 232 286 240 218 219 206 235 266 338 360 343 314 290 345 307 285 240 196 187 152 157 166 164 156 157 165 168 173 171 163 154 153
257 259 263 265 266 270 275 280 281 286 301 320 327 335 341 332 337 346 352 35 311 263 170 181 218 202 196 208 212 194 321 264 228 229 231 215 173 156 60 147 133 220 189 128 345 275 256 124 103 129 143 129 188 251 232 177 161 283 250 185 156 137 254 286 338 4 286 270 272 94 248 277 287 174 184 173 179 185 175 169 169 171 176 179 171 163 158 157
255 256 257 259 260 261 262 265 265 273 290 302 313 325 327 328 337 344 8 30 295 220 144 179 193 183 190 201 198 177 198 259 212 240 206 172 158 124 188 220 130 226 168 92 336 272 174 86 55 100 127 181 242 259 228 157 141 245 238 135 120 143 264 261 235 238 237 282 293 233 207 267 279 235 189 172 181 193 189 189 183 181 182 176 169 166 161 158
251 251 252 252 254 254 251 252 256 265 271 271 286 301 315 325 329 348 56 14 284 156 137 191 169 181 195 199 204 193 230 286 157 189 165 159 198 106 172 219 180 206 167 115 258 267 180 173 206 158 134 221 228 230 189 142 145 245 213 161 182 217 236 239 222 244 273 22 291 235 179 247 271 255 164 162 186 207 199 192 190 186 180 170 168 169 162 322
245 245 247 247 248 248 244 244 247 252 249 249 263 274 301 316 323 27 82 269 270 127 139 175 164 201 191 179 218 218 237 252 198 186 165 167 237 143 294 240 172 201 230 170 212 258 239 187 185 153 159 227 223 214 173 147 194 237 194 203 263 243 239 227 221 252 34 29 260 226 167 218 264 238 142 163 206 217 201 187 189 184 176 168 168 171 184 220
243 242 243 242 241 240 238 239 242 242 238 241 242 246 297 312 11 66 68 249 252 140 125 153 185 185 164 161 262 224 207 216 211 180 170 184 202 172 290 270 150 148 290 283 237 261 268 140 148 153 188 199 171 178 177 160 187 150 69 352 328 294 270 143 192 71 68 260 256 218 185 201 269 252 162 180 221 202 179 173 186 184 172 166 169 176 183 180
241 242 240 238 236 235 234 232 231 232 229 229 234 235 278 321 77 109 218 245 298 210 117 150 216 138 141 157 240 204 194 232 206 170 181 201 182 37 47 339 12 56 349 334 299 304 340 146 213 201 186 141 109 109 313 27 61 70 66 36 346 312 356 38 4 52 122 255 261 226 202 195 237 246 189 217 239 175 169 174 180 179 167 164 170 179 173 177
238 241 239 235 233 231 229 225 220 223 224 219 225 230 198 18 51 189 225 317 337 216 160 173 214 167 150 121 226 215 198 239 193 164 176 154 159 210 168 202 207 8 323 291 302 322 308 239 249 84 169 156 121 71 334 359 41 76 81 63 10 325 351 356 309 187 215 249 248 181 160 210 239 249 208 222 231 179 174 175 170 164 161 162 167 174 174 183
238 238 237 232 230 229 225 223 217 213 214 207 204 178 96 112 229 218 221 273 255 202 145 136 150 138 131 108 264 222 140 232 207 170 178 126 18 276 258 218 166 158 266 245 334 320 302 297 292 98 252 183 154 146 233 280 110 136 128 118 138 334 326 296 270 270 277 269 250 117 58 269 263 276 224 208 199 167 160 160 158 154 156 162 163 167 176 183
238 235 235 230 226 227 223 217 216 213 213 204 185 119 110 190 236 228 222 234 236 129 89 113 101 90 126 172 239 197 128 271 202 135 42 80 63 273 277 259 176 150 199 332 324 219 242 304 243 185 219 172 173 182 170 149 147 188 164 136 158 160 224 268 254 264 290 289 259 235 306 240 220 295 272 179 138 136 142 146 148 150 155 161 161 165 178 189
237 234 235 233 225 223 221 215 214 214 211 200 171 132 173 209 232 227 226 229 226 107 32 71 95 92 259 262 268 203 182 268 169 101 158 166 176 202 206 229 195 151 125 142 274 190 199 258 242 249 95 151 181 214 145 113 114 236 133 112 187 181 188 250 214 205 294 306 273 215 228 226 188 326 355 115 123 129 138 144 146 151 156 157 163 169 178 216
238 235 236 238 228 218 217 216 213 211 206 189 165 203 212 211 194 196 214 203 182 149 115 6 97 138 259 267 275 241 162 229 95 84 243 207 201 209 202 213 189 169 161 168 227 220 244 266 253 28 3 153 170 210 151 112 156 207 135 174 227 178 146 235 257 18 41 297 275 203 246 273 178 340 54 120 135 141 149 152 151 156 159 159 166 170 174 335
235 237 240 241 232 219 215 215 213 211 201 182 191 218 211 209 202 209 218 140 148 137 131 203 212 188 221 238 241 227 153 263 221 116 246 240 227 202 199 227 191 183 190 177 208 228 231 273 240 152 224 237 196 2 335 9 125 143 180 227 225 128 95 118 264 336 52 265 270 185 243 261 173 206 227 159 165 174 183 174 159 163 163 162 166 165 196 322
228 241 249 244 233 222 213 214 217 210 193 179 225 228 208 209 211 213 215 164 140 97 127 207 225 184 195 217 235 203 163 194 200 166 206 238 242 187 166 196 195 193 197 172 179 254 131 278 269 163 199 245 42 31 323 343 86 139 197 254 133 174 259 131 150 264 233 268 272 228 252 247 192 192 195 190 193 190 192 182 170 175 169 164 167 169 191 252
225 242 256 246 234 224 215 216 217 203 188 186 223 225 210 219 222 220 224 217 184 160 170 217 224 207 193 192 193 184 179 186 176 183 209 211 228 192 170 180 169 178 181 159 172 232 117 231 276 303 257 267 42 84 204 230 49 89 34 316 91 197 225 163 159 189 203 266 273 291 298 258 198 188 181 191 200 188 185 183 179 185 176 169 172 175 187 220
220 231 255 245 232 225 216 216 211 193 194 213 213 219 223 228 229 224 227 229 197 183 210 211 203 220 224 203 194 179 184 189 173 183 211 203 217 217 195 179 148 141 125 119 149 190 105 196 250 312 333 238 191 197 193 191 176 145 176 218 205 184 145 219 232 157 193 254 262 293 287 256 188 182 179 188 196 186 179 179 184 185 176 172 176 179 186 244
211 225 243 225 218 217 207 204 205 193 207 232 215 225 235 237 237 226 228 230 225 218 215 191 185 202 206 213 218 182 170 195 187 193 223 215 215 233 210 185 157 147 107 71 158 196 153 194 223 252 252 225 226 220 202 193 183 180 188 191 199 193 148 247 254 193 199 239 211 247 270 262 198 181 182 179 185 181 173 172 184 183 174 171 176 177 186 303
202 220 229 203 202 204 194 190 204 200 214 224 220 228 231 236 245 236 231 227 226 228 222 207 198 203 204 206 204 172 174 206 197 196 227 220 206 214 208 187 167 155 145 128 212 204 148 145 221 251 244 236 249 252 191 181 170 188 214 194 188 185 171 207 239 224 198 231 186 235 263 274 177 155 166 166 165 165 172 179 182 180 175 173 175 177 206 299
205 212 205 194 198 192 185 194 209 199 227 229 229 239 237 239 246 235 224 216 217 218 217 220 198 206 223 200 181 191 193 213 213 202 216 223 208 218 197 178 167 151 141 159 216 177 131 134 221 265 280 277 294 2 30 41 64 265 244 192 185 207 202 212 232 209 158 219 208 233 258 268 254 163 160 157 160 164 179 188 179 171 172 172 175 183 221 282
211 213 202 195 195 188 186 207 202 203 230 227 231 242 238 241 241 229 211 201 205 191 200 229 208 210 228 181 180 211 197 212 238 214 205 205 201 217 184 174 172 164 168 189 175 166 177 186 170 265 304 297 293 335 345 354 154 225 233 187 203 219 206 244 268 148 235 239 225 235 258 254 235 244 173 151 160 176 188 189 177 169 172 175 181 187 209 300
213 219 216 206 196 193 201 218 205 209 219 215 232 240 233 239 234 227 222 214 208 186 189 229 212 199 208 166 191 218 202 216 241 221 188 202 214 222 176 181 186 187 188 183 165 162 176 205 168 199 272 271 274 284 277 221 186 217 218 197 207 205 191 210 237 187 231 244 229 224 247 251 210 156 221 186 180 200 200 182 171 174 179 179 182 187 211 331
200 206 212 197 193 201 215 223 219 222 209 201 231 235 224 233 235 223 220 220 215 202 204 223 199 186 193 178 199 228 223 222 230 222 167 190 225 280 180 193 202 197 184 172 163 156 143 260 203 211 232 240 256 266 240 125 190 227 206 201 203 198 201 209 214 216 223 249 251 235 236 253 256 227 222 217 197 207 213 184 173 176 181 180 179 188 309 340
203 206 196 170 184 206 219 222 218 223 216 203 212 231 216 220 229 219 213 212 208 205 216 226 192 189 196 184 199 233 231 222 222 231 221 196 216 316 220 197 200 192 174 167 173 154 104 249 221 220 232 240 253 262 234 159 233 248 232 208 202 200 208 211 218 227 201 111 260 250 229 243 254 243 228 225 216 220 212 186 185 187 187 183 177 218 328 339
207 220 206 190 180 201 211 210 207 215 227 219 223 260 233 215 210 205 206 210 205 201 207 227 213 206 197 188 203 235 229 211 217 228 226 217 213 134 291 229 204 194 167 164 191 156 127 244 232 221 238 248 254 262 258 242 251 258 245 214 208 211 214 218 225 231 209 206 252 261 253 247 249 245 239 228 212 222 219 201 206 202 187 178 173 322 335 342
208 224 211 200 202 204 202 203 199 207 224 222 224 242 238 225 218 205 184 188 214 207 201 218 223 209 201 202 208 228 221 186 207 227 217 217 215 176 168 255 212 195 175 161 203 165 150 250 243 222 247 259 255 252 257 253 258 264 252 223 221 228 225 226 232 235 229 236 253 264 266 263 258 248 252 246 216 215 211 199 198 184 169 169 170 340 343 343
208 209 195 193 212 218 202 199 196 205 220 216 224 235 232 227 226 217 185 187 211 209 201 219 227 204 204 213 212 226 226 193 207 227 198 196 220 188 187 215 160 171 191 163 183 206 197 243 249 168 252 268 260 240 243 247 254 262 257 232 229 241 241 237 237 236 235 242 251 256 261 267 265 254 260 258 233 207 184 179 179 169 163 164 117 341 341 338
213 212 203 187 210 216 198 190 189 201 219 213 222 228 222 226 224 214 209 216 220 209 181 212 228 214 211 221 219 228 229 206 214 230 200 190 208 196 197 191 147 150 192 175 170 207 206 230 50 104 237 265 262 210 239 265 275 268 262 241 230 237 241 238 234 229 225 233 247 253 254 260 264 256 238 227 200 177 171 172 164 157 164 175 302 332 334 329
212 213 210 205 215 209 200 196 184 198 223 217 214 218 221 227 219 204 220 231 229 226 210 208 219 219 216 226 224 229 230 221 226 237 218 205 211 204 208 196 170 165 170 171 182 190 177 195 177 146 222 268 9 107 124 35 311 270 256 228 221 228 234 240 244 237 225 223 238 246 242 251 264 181 168 188 170 168 178 169 161 161 168 173 300 309 317 313